Weather History for KLEX - October, 2012

Change the Weather History Date:

Monday, October 29, 2012

  Actual Average Record
Temperature  
Mean Temperature 40 °F 53 °F  
Max Temperature 45 °F 63 °F 81 °F (1971)
Min Temperature 34 °F 43 °F 21 °F (1925)
Degree Days  
Heating Degree Days 25 12  
Month to date heating degree days 281 245  
Since 1 July heating degree days 355 299  
Cooling Degree Days 0 0  
Month to date cooling degree days 6 23  
Year to date cooling degree days 1359 1186  
Moisture  
Dew Point 29 °F    
Average Humidity 60    
Maximum Humidity 82    
Minimum Humidity 37    
Precipitation  
Precipitation T in 0.11 in 1.06 in (2002)
Month to date precipitation 1.00 2.92  
Year to date precipitation 34.03 37.50  
Snow  
Snow 0.00 in 0.00 in T in (1954)
Month to date snowfall 0.0 0.0  
Since 1 July snowfall 0.0 0.0  
Since 1 September snowfall 0.0 0.0  
Snow Depth 0.00 in    
Sea Level Pressure  
Sea Level Pressure 29.96 in    
Wind  
Wind Speed 16 mph (NW)    
Max Wind Speed 28 mph    
Max Gust Speed 41 mph    
Visibility 10 miles    
Events Rain    
T = Trace of Precipitation, MM = Missing Value Source: NWS Daily Summary

Daily Weather History Graph

Daily Weather History Graph

Search for Another Location

Airport or City:

Trip Planner

Search our weather history database for the weather conditions in past years. The results will help you decide how hot, cold, wet, or windy it might be!

Date:

Astronomy

Oct. 29, 2012 Rise Set
Actual Time 8:01 AM EDT 6:42 PM EDT
Civil Twilight 7:34 AM EDT 7:09 PM EDT
Nautical Twilight 7:03 AM EDT 7:40 PM EDT
Astronomical Twilight 6:32 AM EDT 8:10 PM EDT
Moon 6:34 PM EDT (10/29) 7:50 AM EDT (10/29)
Length of Visible Light 11h 34m
Length of Day
10h 40m
Full, 100% of the Moon is Illuminated
Oct 29
Full
Oct 29
Full
Nov 6
Last Quarter
Nov 13
New
Nov 20
First Quarter

Hourly Weather History & Observations

Time (EDT) Temp. Windchill Dew Point Humidity Pressure Visibility Wind Dir Wind Speed Gust Speed Precip Events Conditions
12:54 AM 42.1 °F 36.1 °F 32.0 °F 67% 30.04 in 10.0 mi NNW 10.4 mph - N/A   Partly Cloudy
1:54 AM 41.0 °F 34.7 °F 32.0 °F 70% 30.03 in 10.0 mi NNW 10.4 mph - N/A   Mostly Cloudy
2:54 AM 41.0 °F 35.8 °F 32.0 °F 70% 30.02 in 10.0 mi NW 8.1 mph - N/A   Overcast
3:54 AM 39.0 °F 32.3 °F 30.9 °F 73% 30.02 in 10.0 mi NNW 10.4 mph - N/A   Scattered Clouds
4:54 AM 37.0 °F 29.3 °F 30.0 °F 76% 30.02 in 10.0 mi NNW 11.5 mph - N/A   Overcast
5:54 AM 35.1 °F 27.9 °F 28.9 °F 78% 30.02 in 10.0 mi NW 9.2 mph - N/A   Partly Cloudy
6:39 AM 35.6 °F 29.2 °F 28.4 °F 75% 30.01 in 10.0 mi NW 8.1 mph - N/A   Mostly Cloudy
6:54 AM 35.1 °F 28.6 °F 28.9 °F 78% 30.02 in 10.0 mi NW 8.1 mph - N/A   Overcast
7:18 AM 33.8 °F 25.8 °F 28.4 °F 81% 30.00 in 10.0 mi NW 10.4 mph - N/A   Scattered Clouds
7:54 AM 34.0 °F 26.6 °F 28.9 °F 82% 30.02 in 10.0 mi NW 9.2 mph - N/A   Clear
8:54 AM 35.1 °F 28.6 °F 28.9 °F 78% 30.02 in 10.0 mi NW 8.1 mph - N/A   Partly Cloudy
9:54 AM 37.9 °F 29.6 °F 30.0 °F 73% 30.01 in 10.0 mi NNW 13.8 mph - N/A   Scattered Clouds
10:54 AM 39.9 °F 31.8 °F 30.0 °F 68% 30.01 in 10.0 mi NW 15.0 mph 21.9 mph N/A   Scattered Clouds
11:10 AM 39.2 °F 31.6 °F 30.2 °F 70% 30.00 in 10.0 mi NNW 12.7 mph 24.2 mph N/A   Mostly Cloudy
11:54 AM 41.0 °F 32.2 °F 30.9 °F 67% 30.00 in 10.0 mi NNW 18.4 mph 26.5 mph N/A   Overcast
12:32 PM 42.8 °F 34.5 °F 32.0 °F 66% 29.98 in 10.0 mi NW 18.4 mph 24.2 mph N/A   Overcast
12:39 PM 42.8 °F 34.5 °F 32.0 °F 66% 29.98 in 10.0 mi NW 18.4 mph 24.2 mph N/A   Overcast
12:54 PM 42.1 °F 34.2 °F 32.0 °F 67% 29.99 in 10.0 mi NNW 16.1 mph - N/A   Overcast
1:26 PM 42.8 °F 34.8 °F 33.8 °F 70% 29.96 in 10.0 mi NW 17.3 mph 28.8 mph N/A   Overcast
1:50 PM 42.8 °F 34.8 °F 33.8 °F 70% 29.96 in 10.0 mi NNW 17.3 mph 25.3 mph 0.00 in Rain Light Rain
1:54 PM 42.1 °F 34.2 °F 34.0 °F 73% 29.97 in 10.0 mi NNW 16.1 mph 23.0 mph 0.00 in Rain Light Rain
2:42 PM 44.6 °F 38.1 °F 33.8 °F 66% 29.94 in 10.0 mi NNW 13.8 mph 25.3 mph 0.00 in   Overcast
2:54 PM 44.1 °F 37.4 °F 34.0 °F 68% 29.94 in 10.0 mi NW 13.8 mph 21.9 mph 0.00 in   Overcast
3:54 PM 45.0 °F 37.6 °F 30.9 °F 58% 29.92 in 10.0 mi NW 17.3 mph 26.5 mph N/A   Overcast
4:54 PM 45.0 °F 37.1 °F 28.9 °F 53% 29.91 in 10.0 mi NW 19.6 mph 31.1 mph N/A   Overcast
5:54 PM 45.0 °F 36.2 °F 25.0 °F 46% 29.89 in 10.0 mi NNW 24.2 mph 33.4 mph N/A   Overcast
6:54 PM 44.1 °F 35.0 °F 21.0 °F 40% 29.88 in 10.0 mi NW 24.2 mph 33.4 mph N/A   Overcast
7:54 PM 45.0 °F 37.6 °F 19.9 °F 37% 29.86 in 10.0 mi NNW 17.3 mph 25.3 mph N/A   Overcast
8:54 PM 45.0 °F 36.2 °F 19.9 °F 37% 29.84 in 10.0 mi NNW 24.2 mph 31.1 mph N/A   Overcast
9:54 PM 45.0 °F 35.8 °F 21.9 °F 40% 29.83 in 10.0 mi NNW 26.5 mph 41.4 mph N/A   Overcast
10:54 PM 44.1 °F 36.5 °F 24.1 °F 45% 29.80 in 10.0 mi NNW 17.3 mph 28.8 mph N/A   Overcast
11:54 PM 44.1 °F 35.0 °F 27.0 °F 51% 29.78 in 10.0 mi NW 24.2 mph 35.7 mph N/A   Overcast